Location: DARK SKY Beskydy - Park tmavé oblohy, www.darkskybeskydy.cz
(49.4926°N, 18.5016°E)
Time: 01:08:35
(UTC+02:00)

Altair - Pass Details

Date: 25 July 2024
Orbit: 1502 x 1682 km, 47.2° (Epoch: 20 June)

Event Time Altitude Azimuth Distance (km) Brightness Sun altitude
Rises 23:55:02 0° 288° (WNW) 4,652 10.5 -19.7°
Reaches altitude 10° 23:58:20 10° 281° (W) 3,660 9.8 -19.9°
Maximum altitude 00:06:24 36° 219° (SW) 2,197 8.0 -20.1°
Enters shadow 00:09:35 29° 182° (S) 2,488 8.0 -20.2°
